Flag for Switzerland Weather past 2 weeks in Schlieren, Zurich, Switzerland

Now
47 °F

Cool.


Feels Like: 45 °F
Forecast: 35 / 65 °F
Wind: 5 mph from Northeast

Location: Zurich Town / Ville.

Current Time: Sep 24, 2014 at 1:30:10 AM

Latest Report: Sep 24, 2014 at 12:00 AM


Visibility: N/A

Pressure: 30.08 "Hg

Humidity: 84%

Dew point: 42 °F

Location of SchlierenLocation

Historic Weather in Schlieren — Graph

°F

Schlieren temperature yesterday

Maximum temperature yesterday: 60 °F (at 5:00 PM)
Minimum temperature yesterday: 41 °F (at 6:00 AM)
Average temperature yesterday: 50 °F

Past Weeks' High & Low Weather Summary

 TemperatureHumidityPressure
High73 °F (Sep 9, 4:00 PM)100% (Sep 16, 7:00 AM)30.22 "Hg (Sep 16, 7:00 AM)
Low41 °F (Sep 23, 6:00 AM)47% (Sep 23, 4:00 PM)29.81 "Hg (Sep 17, 5:00 PM)
Average59 °F83%30.01 "Hg
* Reported Midnight between Sep 8 and Sep 9 — Midnight between Sep 23 and Sep 24, Schlieren, Weather by CustomWeather, © 2014

Note: Actual official high and low records may vary slightly from our data, if they occured in-between our weather recording intervals... More about our weather records

Advertising

Schlieren weather history for previous 24 hours

 ConditionsComfort  
Time TempWeatherWind HumidityBarometerVisibility
12:00 AM
Sep 24
47 °FCool.5 mph84%30.08 "HgN/A
11:00 PM
Sep 23
50 °FCool.7 mph72%30.06 "HgN/A
10:00 PM51 °FCool.7 mph70%30.06 "HgN/A
9:00 PM52 °FCool.7 mph69%30.05 "HgN/A
8:00 PM53 °FCool.7 mph67%30.03 "HgN/A
7:00 PM56 °FCool.3 mph62%30.01 "HgN/A
6:00 PM59 °FRefreshingly cool.6 mph50%29.99 "HgN/A
5:00 PM60 °FRefreshingly cool.8 mph49%30.01 "HgN/A
4:00 PM60 °FRefreshingly cool.8 mph47%30.02 "HgN/A
3:00 PM59 °FRefreshingly cool.12 mph48%30.03 "HgN/A
2:00 PM59 °FPassing clouds.9 mph55%30.06 "HgN/A
1:00 PM57 °FCool.12 mph61%30.09 "HgN/A
12:00 PM54 °FCool.9 mph65%30.13 "HgN/A
11:00 AM51 °FCool.6 mph68%30.18 "HgN/A
10:00 AM48 °FCool.5 mph75%30.20 "HgN/A
9:00 AM44 °FQuite cool.2 mph88%30.22 "HgN/A
8:00 AM41 °FQuite cool.3 mph94%30.22 "HgN/A
7:00 AM42 °FQuite cool.7 mph92%30.21 "HgN/A
6:00 AM41 °FQuite cool.5 mph95%30.20 "HgN/A
5:00 AM42 °FQuite cool.1 mph92%30.20 "HgN/A
4:00 AM43 °FQuite cool.5 mph89%30.19 "HgN/A
3:00 AM44 °FQuite cool.8 mph86%30.19 "HgN/A
2:00 AM45 °FCool.9 mph83%30.17 "HgN/A
1:00 AM46 °FCool.9 mph86%30.18 "HgN/A
Weather by CustomWeather, © 2014

See weather overviewHow to use our weather pages